Wind_Speed
13 13 12 12 12 12 12 12 12 12 12 13 12 12 11 11 10 10 10 10 10 10 10 10 11 11 11 11 11 11 11 11 11 11 11 12 12 12 12 13 13 13 14 14
14 13 12 12 13 13 12 12 12 12 13 13 13 12 12 12 11 11 11 11 11 11 11 11 11 12 11 11 12 12 12 12 12 12 12 12 13 13 13 13 13 14 14 15
14 14 13 13 13 13 13 13 12 13 13 14 13 13 13 12 11 11 12 12 12 12 12 12 12 12 12 12 12 13 13 13 13 13 13 13 13 14 14 14 14 14 15 16
14 14 14 14 14 14 14 13 13 13 13 13 14 13 13 13 12 12 12 13 13 13 13 12 12 12 12 12 13 13 13 13 13 13 13 13 14 14 14 15 15 16 16 16
14 14 14 14 14 14 14 14 14 14 14 15 15 15 13 13 13 12 13 13 13 13 13 13 13 12 13 13 14 14 14 14 14 14 14 14 14 14 15 16 16 16 16 16
15 15 15 15 15 15 15 15 15 15 16 16 15 15 14 13 13 13 14 14 13 13 13 14 14 14 14 14 15 14 14 14 14 14 14 14 15 15 16 16 17 17 17 16
15 15 16 15 15 15 16 16 16 16 16 16 15 15 14 13 14 15 15 15 14 14 15 15 15 15 15 15 15 15 15 14 14 14 15 15 16 16 17 17 17 17 16 17
16 15 16 15 16 16 17 17 17 17 16 16 16 16 14 14 15 16 16 15 15 15 16 16 15 15 15 16 16 15 15 15 15 15 15 16 16 16 17 17 17 17 17 17
16 16 16 16 16 17 17 17 17 17 17 17 17 15 15 15 15 16 16 15 16 16 17 17 16 16 16 16 16 16 15 15 15 16 16 17 17 17 18 18 18 18 18 18
16 16 16 16 16 17 17 17 17 17 17 17 16 16 16 16 16 16 15 15 16 17 17 17 16 16 17 17 17 17 16 17 17 17 18 18 19 19 19 19 19 20 20 20
17 17 16 16 16 16 16 17 18 18 19 18 18 17 16 17 17 16 16 17 17 18 18 17 17 17 17 18 18 17 18 18 19 19 19 20 20 20 20 20 20 20 21 21
18 18 17 17 17 17 18 17 18 19 19 19 19 17 17 17 17 17 17 18 18 19 19 18 18 18 18 18 18 18 19 19 20 20 20 21 21 21 21 21 22 22 22 23
19 19 18 18 18 18 18 18 18 19 19 19 19 18 17 18 18 18 18 19 19 19 20 19 19 18 18 19 19 19 19 20 20 20 21 21 21 21 22 22 23 23 23 23
20 20 20 19 18 19 19 19 19 20 20 20 19 19 18 19 19 19 20 20 20 20 20 20 19 19 19 20 20 20 21 21 21 21 22 22 22 22 23 23 24 24 24 24
21 21 21 21 20 20 21 20 20 21 21 21 20 19 18 19 20 20 20 20 20 20 20 19 19 20 20 21 21 21 21 22 22 23 23 23 24 24 24 24 24 25 25 25
22 23 22 22 22 23 23 22 22 22 22 22 22 21 20 20 20 21 21 21 21 21 21 20 20 21 21 22 22 22 23 24 24 24 24 24 25 24 25 25 26 26 26 25
23 24 24 23 23 24 24 22 23 24 23 23 23 22 21 22 22 22 22 22 22 22 22 22 22 22 23 24 24 24 25 25 25 26 26 26 26 26 26 26 26 27 27 27
24 24 25 25 25 26 24 23 24 24 24 23 23 23 22 22 21 22 22 22 23 23 23 22 23 24 24 24 24 25 25 26 26 26 27 28 28 28 27 27 28 28 28 28
24 25 25 26 25 25 24 23 24 25 24 24 24 23 23 22 22 22 22 22 23 24 23 23 23 23 24 25 25 26 26 26 27 27 28 29 30 29 29 29 29 29 29 29
23 24 26 26 26 26 24 23 24 25 25 24 24 24 24 23 23 22 23 23 23 24 24 24 24 24 25 25 26 26 26 26 27 28 28 29 29 30 30 30 29 30 30 29
23 24 25 25 26 26 24 24 24 25 24 24 24 24 24 24 23 23 24 24 24 24 24 24 25 25 25 25 26 26 26 26 27 28 28 29 29 29 30 30 30 30 30 30
24 25 25 26 26 26 24 25 25 24 24 24 24 24 25 25 25 25 25 25 25 25 25 25 25 25 25 26 27 27 28 28 28 28 29 29 30 30 31 31 31 31 30 30
25 25 26 26 26 26 25 26 26 27 26 25 25 26 26 26 27 27 27 27 26 26 26 26 26 26 26 27 28 29 29 29 29 30 30 31 31 31 31 31 31 31 31 30
26 26 27 27 26 27 27 28 28 28 28 27 27 27 27 27 28 28 27 27 27 27 27 27 27 27 28 28 29 30 30 31 32 31 32 32 32 32 31 31 31 31 31 31
26 26 27 27 27 28 28 29 29 29 29 29 28 28 28 29 30 30 29 28 28 28 28 29 29 29 29 30 30 31 31 31 32 32 32 32 31 31 32 32 31 31 31 31
27 27 28 28 28 29 29 29 30 30 29 29 29 29 29 29 30 30 29 29 29 29 29 29 30 30 30 30 31 31 31 32 33 33 33 32 32 32 32 32 31 31 31 31
Wind_Direction
253 254 256 260 262 265 265 264 263 263 263 264 265 267 267 268 272 274 276 279 282 285 288 290 292 295 298 300 302 302 301 296 295 296 297 297 297 297 298 299 298 296 297 299
251 252 254 255 258 260 261 262 262 262 263 265 265 264 266 269 273 274 275 277 280 285 287 288 291 293 295 298 299 301 301 298 295 293 294 295 296 297 298 298 299 298 298 300
253 253 254 256 257 257 259 262 263 262 262 262 263 262 264 267 269 272 274 277 280 285 286 289 291 292 293 294 296 299 301 299 296 293 293 294 295 298 300 301 301 302 303 304
252 252 254 256 257 256 257 260 261 260 260 260 261 261 261 265 268 271 275 276 280 283 281 285 288 289 290 293 297 299 300 299 296 294 294 293 294 295 298 300 301 301 302 306
254 255 255 256 258 258 258 259 260 261 262 262 261 263 260 264 267 268 272 276 280 282 281 281 285 288 289 293 297 298 298 298 296 294 294 295 294 294 296 298 298 299 302 304
254 255 256 257 257 258 259 258 259 260 263 262 262 264 262 264 266 267 270 274 279 281 281 283 285 287 289 293 297 298 298 298 295 294 294 295 293 293 295 297 297 298 299 301
254 254 256 255 255 256 256 257 259 261 263 265 265 265 267 267 268 269 271 274 277 280 281 282 286 288 290 292 294 295 296 296 295 293 294 294 294 293 294 295 296 297 298 301
256 256 256 256 254 256 255 257 261 265 267 267 267 269 271 272 273 273 273 273 276 279 281 284 287 289 290 290 290 291 295 294 294 293 294 295 294 294 294 294 295 296 298 299
256 257 256 254 253 253 255 256 259 264 266 268 269 271 271 274 275 275 274 274 277 280 283 285 285 287 288 288 288 289 292 292 293 293 293 294 294 293 293 293 293 295 297 298
255 255 256 255 254 255 256 258 260 262 268 272 272 274 273 274 275 276 275 276 278 281 283 284 283 285 286 287 287 289 291 292 292 292 292 292 292 292 292 292 292 293 295 297
253 255 254 254 254 255 255 255 259 265 268 273 275 274 275 275 276 277 276 277 279 280 282 283 281 282 283 285 287 289 291 292 291 291 291 292 291 291 292 293 293 293 294 295
252 255 255 255 256 255 255 258 260 264 268 271 274 275 276 275 277 276 276 277 277 279 280 281 280 279 281 283 286 289 290 291 292 291 291 292 291 291 291 292 293 293 294 293
254 255 256 253 254 256 257 260 263 267 269 270 272 275 276 276 277 277 276 276 277 278 280 280 279 277 279 281 283 285 288 290 291 292 293 293 292 291 292 292 292 293 294 293
256 256 257 257 256 257 259 261 263 267 270 271 273 275 276 276 277 277 278 277 277 277 279 278 277 277 278 279 281 283 285 288 290 292 293 293 293 291 291 292 292 292 292 292
258 258 259 260 259 259 261 262 264 266 269 273 274 274 273 274 275 277 277 278 277 277 278 278 278 278 278 279 282 283 284 286 288 290 291 292 293 292 292 293 293 293 293 292
258 259 261 262 261 262 262 262 263 266 269 272 273 273 274 273 275 276 277 277 276 276 277 279 279 279 280 281 281 283 285 285 287 288 291 291 291 292 292 291 292 292 292 291
260 260 261 262 263 264 264 264 264 265 267 269 271 273 273 274 277 276 276 277 278 278 279 280 279 280 280 281 282 284 285 287 288 289 290 292 293 292 291 291 291 291 289 289
260 261 262 263 263 263 266 264 263 264 266 268 271 272 273 276 279 280 279 279 280 279 278 280 281 280 279 280 282 284 285 288 289 290 292 291 291 292 292 292 291 290 290 289
264 264 263 262 262 264 266 267 266 265 265 268 271 273 275 276 278 280 281 281 281 279 278 278 280 280 280 281 283 285 288 289 289 291 291 292 292 291 291 292 291 290 291 290
265 266 266 265 265 266 266 267 267 267 267 267 270 272 274 275 276 279 281 282 282 280 279 279 279 279 280 281 282 284 287 289 290 292 293 292 292 292 291 291 290 290 290 290
264 266 267 267 267 267 267 268 268 268 269 269 269 270 272 275 277 277 280 282 283 282 281 280 279 279 279 281 283 286 289 290 291 292 292 292 292 292 291 291 290 290 290 290
264 265 266 267 268 267 268 267 267 268 269 270 271 271 272 274 276 277 279 281 282 282 281 281 280 280 281 282 284 286 289 291 291 292 293 293 292 292 291 290 290 290 289 289
265 266 267 266 267 267 267 268 268 268 268 269 271 273 274 275 275 276 278 281 282 281 281 281 280 280 281 282 284 286 288 290 291 292 294 294 293 292 291 290 290 290 289 289
266 267 267 267 266 267 266 267 268 269 269 270 271 272 273 275 276 276 277 280 280 279 280 281 281 280 281 282 283 285 286 288 290 291 293 293 293 292 290 290 290 290 290 289
268 268 268 267 266 266 265 266 267 268 268 269 269 271 272 273 275 276 276 277 278 278 279 280 280 280 280 282 283 284 286 288 290 291 292 293 292 291 290 290 290 290 291 290
268 267 267 267 267 266 266 267 268 268 269 270 269 270 271 273 275 275 275 276 277 278 279 281 281 281 281 281 284 286 287 287 290 291 292 292 291 290 290 290 290 290 291 290
Height
5845 5847 5848 5848 5849 5850 5850 5851 5851 5851 5851 5852 5852 5852 5853 5853 5853 5853 5852 5852 5851 5851 5850 5850 5849 5848 5847 5847 5846 5845 5844 5843 5842 5841 5840 5839 5838 5837 5836 5835 5834 5833 5831 5830
5844 5844 5845 5845 5846 5847 5847 5848 5848 5849 5849 5849 5849 5850 5850 5850 5851 5850 5850 5850 5849 5848 5848 5847 5846 5846 5845 5844 5843 5842 5841 5840 5839 5838 5837 5836 5835 5834 5833 5832 5831 5830 5828 5827
5840 5842 5842 5843 5843 5844 5844 5845 5846 5846 5846 5846 5847 5848 5848 5848 5848 5848 5847 5847 5847 5846 5845 5844 5844 5843 5842 5841 5840 5839 5838 5837 5836 5835 5834 5833 5832 5831 5830 5829 5828 5826 5825 5823
5837 5838 5839 5839 5840 5841 5842 5842 5842 5843 5843 5843 5844 5845 5845 5845 5845 5845 5845 5844 5844 5843 5843 5842 5841 5840 5839 5838 5837 5836 5835 5833 5832 5831 5830 5830 5829 5828 5827 5825 5824 5822 5821 5819
5834 5835 5836 5836 5837 5838 5839 5839 5839 5839 5839 5840 5841 5841 5843 5842 5842 5842 5842 5841 5841 5840 5840 5839 5838 5837 5836 5835 5834 5832 5831 5830 5829 5828 5827 5826 5825 5824 5823 5821 5820 5818 5817 5815
5831 5832 5832 5833 5834 5834 5835 5836 5836 5836 5836 5837 5838 5838 5839 5840 5840 5839 5839 5838 5838 5837 5837 5836 5835 5834 5833 5831 5830 5829 5828 5826 5825 5824 5823 5822 5821 5820 5818 5817 5816 5814 5813 5811
5827 5828 5829 5829 5830 5831 5831 5832 5833 5832 5833 5834 5835 5835 5837 5837 5836 5836 5836 5835 5835 5834 5833 5832 5831 5830 5829 5828 5827 5825 5824 5823 5822 5821 5819 5818 5817 5816 5814 5813 5811 5810 5809 5807
5824 5825 5825 5826 5826 5827 5828 5829 5830 5830 5830 5831 5831 5831 5834 5833 5833 5832 5832 5831 5831 5830 5829 5828 5827 5826 5825 5824 5823 5822 5821 5819 5818 5817 5815 5814 5813 5812 5810 5808 5807 5806 5804 5803
5820 5821 5822 5822 5823 5824 5824 5825 5826 5826 5826 5827 5827 5828 5829 5829 5828 5828 5828 5827 5827 5826 5825 5824 5823 5822 5821 5820 5819 5818 5817 5815 5814 5813 5811 5810 5808 5807 5805 5804 5802 5801 5799 5798
5816 5817 5818 5818 5819 5820 5821 5821 5822 5822 5822 5823 5824 5824 5825 5825 5824 5824 5824 5823 5823 5822 5821 5820 5819 5818 5817 5816 5815 5814 5812 5811 5810 5808 5806 5805 5804 5802 5800 5799 5797 5795 5794 5792
5812 5813 5815 5815 5815 5816 5817 5818 5818 5818 5818 5819 5819 5822 5821 5820 5820 5820 5819 5819 5818 5817 5817 5816 5814 5813 5812 5811 5810 5809 5808 5806 5805 5803 5801 5800 5798 5796 5795 5793 5792 5790 5788 5786
5808 5809 5810 5811 5812 5812 5813 5813 5814 5815 5814 5814 5814 5819 5816 5815 5815 5815 5815 5814 5813 5813 5812 5811 5810 5808 5807 5806 5805 5804 5802 5801 5799 5797 5796 5794 5792 5791 5789 5787 5786 5784 5782 5780
5803 5805 5805 5807 5809 5809 5809 5809 5810 5810 5810 5809 5810 5813 5811 5811 5810 5810 5810 5809 5808 5807 5806 5805 5804 5803 5802 5801 5800 5799 5797 5795 5794 5792 5790 5788 5786 5785 5783 5781 5779 5777 5775 5774
5799 5800 5801 5803 5803 5804 5804 5805 5805 5805 5805 5805 5805 5806 5806 5805 5805 5805 5804 5803 5803 5802 5801 5800 5798 5797 5796 5795 5794 5793 5791 5789 5788 5786 5784 5782 5780 5778 5776 5774 5773 5771 5769 5767
5794 5795 5796 5797 5798 5799 5799 5800 5800 5800 5800 5800 5801 5801 5801 5800 5800 5799 5798 5798 5797 5796 5795 5794 5793 5792 5791 5789 5788 5787 5785 5783 5782 5780 5777 5775 5773 5771 5769 5767 5766 5764 5762 5760
5789 5790 5791 5792 5792 5793 5794 5795 5795 5795 5795 5794 5794 5795 5795 5794 5794 5793 5793 5792 5791 5790 5789 5788 5787 5786 5784 5783 5782 5781 5779 5777 5775 5773 5771 5769 5766 5764 5762 5760 5758 5756 5754 5752
5783 5784 5785 5786 5787 5787 5788 5789 5789 5789 5789 5789 5789 5790 5789 5789 5788 5787 5786 5786 5785 5784 5783 5782 5780 5779 5778 5777 5775 5774 5772 5770 5768 5766 5764 5761 5759 5757 5755 5752 5751 5749 5746 5745
5778 5778 5779 5779 5781 5780 5784 5783 5783 5783 5783 5783 5783 5783 5783 5782 5782 5781 5780 5779 5778 5777 5776 5775 5774 5772 5771 5770 5768 5767 5765 5763 5761 5758 5756 5754 5751 5749 5747 5745 5743 5741 5739 5737
5772 5772 5772 5773 5773 5774 5776 5776 5776 5776 5776 5777 5777 5776 5776 5776 5775 5774 5773 5771 5771 5770 5769 5768 5767 5765 5764 5762 5761 5759 5758 5756 5753 5751 5749 5746 5744 5741 5739 5737 5735 5733 5732 5730
5765 5766 5766 5766 5766 5767 5770 5770 5769 5770 5770 5770 5770 5770 5769 5769 5769 5768 5766 5765 5764 5763 5762 5761 5759 5758 5757 5755 5754 5752 5750 5748 5746 5744 5741 5739 5736 5734 5732 5730 5727 5725 5723 5721
5759 5759 5759 5759 5759 5760 5763 5763 5763 5764 5764 5763 5763 5763 5762 5762 5762 5761 5759 5758 5757 5756 5754 5753 5752 5751 5749 5748 5747 5745 5743 5741 5739 5736 5734 5731 5728 5726 5724 5721 5719 5717 5715 5713
5752 5753 5753 5753 5753 5756 5755 5755 5755 5756 5755 5755 5755 5755 5755 5755 5754 5753 5752 5751 5750 5748 5747 5746 5744 5743 5742 5740 5739 5737 5735 5733 5731 5728 5726 5723 5720 5718 5715 5713 5711 5709 5706 5704
5745 5746 5746 5747 5748 5747 5747 5747 5747 5747 5748 5748 5748 5748 5747 5747 5746 5745 5744 5743 5742 5741 5739 5738 5737 5735 5734 5732 5731 5729 5727 5725 5723 5720 5718 5715 5712 5709 5707 5704 5702 5700 5698 5696
5738 5738 5738 5738 5739 5739 5739 5739 5739 5739 5739 5740 5740 5740 5739 5739 5738 5737 5736 5736 5734 5733 5732 5731 5729 5727 5726 5724 5722 5721 5719 5716 5714 5712 5709 5706 5703 5701 5698 5696 5693 5691 5689 5687
5730 5730 5730 5730 5731 5731 5731 5730 5731 5731 5731 5731 5731 5731 5731 5730 5730 5729 5728 5727 5726 5725 5724 5722 5721 5719 5718 5716 5714 5712 5710 5708 5705 5702 5700 5697 5694 5692 5689 5687 5685 5683 5680 5678
5722 5722 5722 5722 5722 5722 5723 5722 5722 5722 5722 5722 5723 5723 5722 5721 5721 5720 5719 5718 5717 5716 5715 5713 5712 5710 5708 5707 5705 5703 5701 5698 5696 5693 5691 5688 5686 5683 5680 5678 5676 5673 5671 5668